Location: Regensburg
(48.4565°N, 10.3217°E)
Time: 10:39:30
(UTC+01:00)

ISS - Visible Passes

Search period start: 25 February 2018 00:00
Search period end: 07 March 2018 00:00
Orbit: 402 x 407 km, 51.6° (Epoch: 25 February)

Date Brightness Start Highest point End Pass type
(mag) Time Alt. Az. Time Alt. Az. Time Alt. Az.
26 Feb -1.0 06:24:38 10° S 06:26:52 17° SE 06:29:07 10° E visible
27 Feb -0.5 05:34:32 10° SE 05:34:52 10° SE 05:35:13 10° SE visible
28 Feb -2.2 06:15:35 10° SSW 06:18:34 33° SE 06:21:34 10° E visible
01 Mar -1.5 05:24:04 11° S 05:26:27 20° SE 05:28:57 10° E visible
02 Mar -1.0 04:34:12 12° SE 04:34:23 12° SE 04:35:49 10° ESE visible
02 Mar -3.4 06:07:05 10° SW 06:10:20 62° SSE 06:13:34 10° ENE visible
03 Mar -2.7 05:16:53 27° SSW 05:18:05 39° SSE 05:21:11 10° ENE visible
04 Mar -1.5 04:26:47 21° ESE 04:26:47 21° ESE 04:28:38 10° E visible
04 Mar -3.8 05:59:26 14° WSW 06:02:08 79° NNW 06:05:25 10° ENE visible
05 Mar -3.8 05:09:14 55° SW 05:09:47 72° SSE 05:13:05 10° ENE visible
06 Mar -1.7 04:18:58 26° E 04:18:58 26° E 04:20:40 10° ENE visible
06 Mar -3.5 05:51:36 17° W 05:53:59 55° NNW 05:57:12 10° ENE visible
